Flag for Germany Weather past 2 weeks in Helmstedt, Lower Saxony, Germany

Now
52 °F

Mostly cloudy.


Feels Like: 48 °F
Forecast: 45 / 54 °F
Wind: 12 mph from Northwest

Location: Braunschweig

Current Time: Oct 22, 2014 at 5:45:50 PM

Latest Report: Oct 22, 2014 at 5:20 PM


Visibility: N/A

Pressure: 29.83 "Hg

Humidity: 100%

Dew point: 52 °F

Location of HelmstedtLocation

Historic Weather in Helmstedt — Graph

°F

Helmstedt temperature yesterday

Maximum temperature yesterday: 57 °F (at 10:50 AM)
Minimum temperature yesterday: 52 °F (at 8:20 PM)
Average temperature yesterday: 55 °F

Past Weeks' High & Low Weather Summary

 TemperatureHumidityPressure
High72 °F (Oct 19, 3:50 PM)100% (Oct 8, 9:20 AM)30.18 "Hg (Oct 8, 9:20 AM)
Low46 °F (Oct 22, 9:20 AM)52% (Oct 14, 2:20 PM)29.45 "Hg (Oct 21, 6:20 PM)
Average58 °F88%29.78 "Hg
* Reported Oct 7 4:20 PM — Oct 22 4:20 PM, Helmstedt, Weather by CustomWeather, © 2014

Note: Actual official high and low records may vary slightly from our data, if they occured in-between our weather recording intervals... More about our weather records

Advertising

Helmstedt weather history for previous 24 hours

 ConditionsComfort  
Time TempWeatherWind HumidityBarometerVisibility
4:20 PM
Oct 22
52 °FLow clouds.9 mph100%29.80 "HgN/A
3:50 PM52 °FMostly cloudy.8 mph100%29.77 "HgN/A
3:20 PM52 °FLight rain. Mostly cloudy.10 mph100%29.77 "HgN/A
2:50 PM50 °FLight rain. Mostly cloudy.9 mph100%29.74 "HgN/A
2:20 PM50 °FRain. Mostly cloudy.9 mph100%29.74 "HgN/A
2:01 PM48 °FRain. Cloudy.13 mph100%29.71 "HgN/A
1:50 PM48 °FLight rain. Mostly cloudy.15 mph100%29.71 "Hg4 mi
1:20 PM48 °FLight rain. Mostly cloudy.16 mph100%29.71 "Hg4 mi
12:50 PM48 °FLight rain. Mostly cloudy.17 mph100%29.68 "HgN/A
12:20 PM46 °FRain. Mostly cloudy.20 mph100%29.68 "Hg2 mi
11:50 AM46 °FRain. Mostly cloudy.20 mph100%29.68 "Hg2 mi
11:20 AM46 °FRain. Mostly cloudy.21 mph100%29.68 "Hg3 mi
10:50 AM48 °FLight rain. Mostly cloudy.18 mph87%29.68 "Hg5 mi
10:20 AM46 °FDrizzle. Mostly cloudy.20 mph93%29.68 "HgN/A
9:50 AM46 °FLight rain. Mostly cloudy.21 mph93%29.71 "Hg5 mi
9:20 AM46 °FOvercast.21 mph87%29.71 "HgN/A
8:50 AM48 °FPartly cloudy.21 mph87%29.68 "HgN/A
8:20 AM48 °FMostly cloudy.17 mph87%29.68 "HgN/A
7:50 AM48 °FPassing clouds.17 mph87%29.68 "HgN/A
7:20 AM48 °FPartly cloudy.15 mph94%29.65 "HgN/A
6:50 AM48 °FPassing clouds.14 mph94%29.65 "HgN/A
8:20 PM
Oct 21
52 °FClear.9 mph100%29.45 "Hg10 mi
7:50 PM54 °FRain. Mostly cloudy.13 mph94%29.45 "HgN/A
7:20 PM55 °FRain. Mostly cloudy.15 mph82%29.45 "HgN/A
6:50 PM55 °FScattered clouds.14 mph77%29.45 "HgN/A
6:20 PM55 °FOvercast.14 mph77%29.45 "HgN/A
5:50 PM55 °FOvercast.15 mph82%29.47 "HgN/A
5:20 PM55 °FLight rain. Partly sunny.14 mph82%29.47 "HgN/A
Weather by CustomWeather, © 2014

See weather overviewHow to use our weather pages